Regional Weather Roundup
Issued by NWS

Home | Current Version | Previous Version | Text Only | Print | Product List | Glossary Off
Versions: 1 2 3 4 5 6 7 8 9 10 11 12 13 14 15 16 17 18 19 20 21 22 23 24 25 26 27 28 29 30 31 32 33 34 35 36 37 38 39 40 41 42 43 44 45 46 47 48 49 50

000
ASUS43 KBIS 170910
RWRND

NORTH DAKOTA REGIONAL WEATHER ROUNDUP
NATIONAL WEATHER SERVICE BISMARCK ND
400 AM CDT THU APR 17 2014

NOTE: "FAIR" INDICATES FEW OR NO CLOUDS BELOW 12,000 FEET WITH NO
SIGNIFICANT WEATHER AND/OR OBSTRUCTIONS TO VISIBILITY.


NDZ001>003-009>011-017-171000-
NORTHWEST NORTH DAKOTA

CITY           SKY/WX    TMP DP  RH WIND       PRES   REMARKS
WILLISTON        N/A    N/A N/A N/A MISG      30.24F
MINOT          CLOUDY    23  13  65 E7        30.31S WCI  15
MINOT AFB      MOCLDY    23  15  71 E7        30.31S WCI  14
$$

NDZ018>021-031>035-040>046-171000-
SOUTHWEST NORTH DAKOTA

CITY           SKY/WX    TMP DP  RH WIND       PRES   REMARKS
BISMARCK       CLOUDY    27  17  66 E9        30.29S WCI  18
DICKINSON      CLOUDY    26  21  81 E7        30.18S WCI  18
GARRISON         N/A     24  14  65 E13       30.27F WCI  12
HETTINGER ARPT CLOUDY    28  20  71 SE6       30.19F
$$

NDZ004>008-012>016-024-026-027-054-171000-
NORTHEAST NORTH DAKOTA

CITY           SKY/WX    TMP DP  RH WIND       PRES   REMARKS
GRAND FORKS    CLEAR     23  19  85 N8        30.28S WCI  14
GRND FRKS AFB  CLEAR     22  17  79 N10       30.32S WCI  11
DEVILS LAKE    CLEAR     19  10  68 CALM      30.31S
$$

NDZ022-023-025-028>030-036>039-047>053-171000-
SOUTHEAST NORTH DAKOTA

CITY           SKY/WX    TMP DP  RH WIND       PRES   REMARKS
FARGO          CLEAR     24  17  74 N10       30.28R WCI  14
JAMESTOWN      CLEAR     19  17  92 NW7       30.28R WCI  10
$$




USA.gov is the U.S. government's official web portal to all federal, state and local government web resources and services.